DW7854 Weather Reports


time (UTC)temp
C
wind
direction
speed
KPH
gust
KPH
rain 1hr
cm
rain 24hr
cm
rain mn
cm
humidity
%
barometer
mb
20260901110109 23 144 0.0 0.0 0.00 0.00 0.00 87 1015.6
20260901105902 23 0 0.0 0.0 0.00 0.00 0.00 87 1015.9
20260901104611 23 144 0.0 0.0 0.00 0.00 0.00 86 1015.5
20260901104102 24 0 0.0 0.0 0.00 0.00 0.00 86 1015.7
20260901103007 24 144 0.0 0.0 0.00 0.00 0.00 85 1015.5
20260901102306 24 0 0.0 0.0 0.00 0.00 0.00 85 1015.7
20260901101507 24 144 0.0 0.0 0.00 0.00 0.00 84 1015.3
20260901101402 24 0 0.0 0.0 0.00 0.00 0.00 85 1015.6
20260901100009 24 144 0.0 0.0 0.00 0.00 0.00 85 1015.3
20260901094702 24 0 0.0 0.0 0.00 0.00 0.00 84 1015.7
20260901094604 24 144 0.0 0.0 0.00 0.00 0.00 84 1015.4
20260901093802 24 0 0.0 0.0 0.00 0.00 0.00 84 1015.7
20260901093004 24 144 0.0 0.0 0.00 0.00 0.00 84 1015.4
20260901092902 25 0 0.0 0.0 0.00 0.00 0.00 84 1015.6
20260901091509 24 144 0.0 0.0 0.00 0.00 0.00 84 1015.4
20260901091102 25 0 0.0 0.0 0.00 0.00 0.00 83 1015.7
20260901090202 24 0 0.0 0.0 0.00 0.00 0.00 84 1015.6
20260901090008 24 144 0.0 0.0 0.00 0.00 0.00 84 1015.3
20260901085305 24 0 0.0 0.0 0.00 0.00 0.00 85 1015.5
20260901084507 24 144 0.0 0.0 0.00 0.00 0.00 85 1015.3
20260901084402 24 0 0.0 0.0 0.00 0.00 0.00 85 1015.6
20260901083502 24 0 0.0 0.0 0.00 0.00 0.00 84 1015.6
20260901083012 24 144 0.0 0.0 0.00 0.00 0.00 84 1015.4
20260901082602 25 0 0.0 0.0 0.00 0.00 0.00 84 1015.8
20260901081702 25 144 1.6 3.2 0.00 0.00 0.00 84 1015.7
20260901081603 24 144 0.0 3.2 0.00 0.00 0.00 84 1015.4
20260901080004 24 144 1.6 3.2 0.00 0.00 0.00 84 1015.3
20260901075002 25 144 1.6 3.2 0.00 0.00 0.00 83 1015.6
20260901074502 25 144 0.0 3.2 0.00 0.00 0.00 83 1015.2
20260901074102 25 144 1.6 3.2 0.00 0.00 0.00 82 1015.6
20260901073202 25 144 0.0 1.6 0.00 0.00 0.00 82 1015.7
20260901073004 25 144 0.0 3.2 0.00 0.00 0.00 82 1015.3
20260901072308 25 143 1.6 3.2 0.00 0.00 0.00 81 1015.6
20260901071606 25 144 0.0 3.2 0.00 0.00 0.00 81 1015.3
20260901071402 25 144 1.6 3.2 0.00 0.00 0.00 81 1015.6
20260901070502 25 144 1.6 3.2 0.00 0.00 0.00 80 1015.4
20260901070007 25 144 0.0 3.2 0.00 0.00 0.00 80 1015.2
20260901065602 25 144 0.0 1.6 0.00 0.00 0.00 80 1015.5
20260901064702 26 0 0.0 0.0 0.00 0.00 0.00 79 1015.4
20260901064509 25 144 0.0 0.0 0.00 0.00 0.00 79 1015.0
20260901063802 26 0 0.0 0.0 0.00 0.00 0.00 79 1015.4
20260901063006 26 144 0.0 0.0 0.00 0.00 0.00 78 1015.0
20260901062902 26 0 0.0 0.0 0.00 0.00 0.00 78 1015.4
20260901062002 26 0 0.0 0.0 0.00 0.00 0.00 77 1015.3
20260901061509 26 144 0.0 0.0 0.00 0.00 0.00 77 1015.0
20260901061102 26 0 0.0 0.0 0.00 0.00 0.00 77 1015.2
20260901060202 26 144 0.0 1.6 0.00 0.00 0.00 76 1015.3
20260901060004 26 144 0.0 1.6 0.00 0.00 0.00 76 1014.9
20260901055306 27 144 0.0 1.6 0.00 0.00 0.00 75 1015.2
20260901054503 27 144 0.0 1.6 0.00 0.00 0.00 75 1014.8
20260901054402 27 144 0.0 1.6 0.00 0.00 0.00 74 1015.0
20260901053502 27 144 0.0 1.6 0.00 0.00 0.00 74 1014.9
20260901053004 27 145 0.0 1.6 0.00 0.00 0.00 73 1014.6
20260901051702 27 0 0.0 0.0 0.00 0.00 0.00 72 1014.8
20260901051505 27 144 0.0 0.0 0.00 0.00 0.00 72 1014.5
20260901050802 27 142 0.0 1.6 0.00 0.00 0.00 72 1014.8
20260901050009 27 144 0.0 3.2 0.00 0.00 0.00 71 1014.4
20260901045902 27 130 0.0 3.2 0.00 0.00 0.00 71 1014.7
20260901045002 27 122 0.0 1.6 0.00 0.00 0.00 71 1014.8
20260901044502 27 123 0.0 1.6 0.00 0.00 0.00 71 1014.4
20260901044102 28 123 0.0 3.2 0.00 0.00 0.00 70 1014.8
20260901043007 27 123 0.0 1.6 0.00 0.00 0.00 70 1014.4
20260901042305 28 127 0.0 3.2 0.00 0.00 0.00 70 1014.8
20260901041508 28 123 0.0 3.2 0.00 0.00 0.00 69 1014.5
20260901041402 28 126 0.0 3.2 0.00 0.00 0.00 69 1014.8
20260901040502 28 127 0.0 3.2 0.00 0.00 0.00 69 1014.8
20260901040113 28 121 0.0 3.2 0.00 0.00 0.00 68 1014.4
20260901034702 28 112 0.0 3.2 0.00 0.00 0.00 68 1014.7
20260901034504 28 113 0.0 3.2 0.00 0.00 0.00 68 1014.3
20260901033802 28 113 0.0 3.2 0.00 0.00 0.00 67 1014.6
20260901033107 28 113 0.0 1.6 0.00 0.00 0.00 67 1014.3
20260901032902 28 113 0.0 1.6 0.00 0.00 0.00 67 1014.6
20260901032002 28 147 0.0 1.6 0.00 0.00 0.00 66 1014.6
20260901031603 28 111 0.0 1.6 0.00 0.00 0.00 65 1014.3
20260901031102 29 110 0.0 1.6 0.00 0.00 0.00 65 1014.5
20260901030202 29 112 0.0 3.2 0.00 0.00 0.00 64 1014.3
20260901030104 28 111 0.0 3.2 0.00 0.00 0.00 64 1014.0
20260901024605 29 117 0.0 4.8 0.00 0.00 0.00 64 1013.7
20260901024402 29 116 0.0 4.8 0.00 0.00 0.00 63 1014.0
20260901023502 29 144 0.0 4.8 0.00 0.00 0.00 63 1014.0
20260901023102 28 159 0.0 4.8 0.00 0.00 0.00 63 1013.7
20260901022602 29 143 1.6 4.8 0.00 0.00 0.00 63 1013.9
20260901021702 29 145 0.0 4.8 0.00 0.00 0.00 62 1013.8
20260901021603 28 109 0.0 4.8 0.00 0.00 0.00 62 1013.5
20260901020802 29 163 0.0 1.6 0.00 0.00 0.00 61 1013.7
20260901020105 29 164 0.0 0.0 0.00 0.00 0.00 61 1013.4
20260901015902 29 0 0.0 0.0 0.00 0.00 0.00 61 1013.6
20260901015002 30 0 0.0 0.0 0.00 0.00 0.00 60 1013.6
20260901014603 30 164 0.0 0.0 0.00 0.00 0.00 60 1013.2
20260901014102 30 0 0.0 0.0 0.00 0.00 0.00 59 1013.4
20260901013202 30 0 0.0 0.0 0.00 0.00 0.00 57 1013.4
20260901013107 30 164 0.0 0.0 0.00 0.00 0.00 57 1013.1
20260901012306 31 164 0.0 1.6 0.00 0.00 0.00 55 1013.4
20260901011503 31 164 0.0 1.6 0.00 0.00 0.00 54 1013.1
20260901011402 31 163 0.0 1.6 0.00 0.00 0.00 54 1013.3
20260901010502 32 163 0.0 1.6 0.00 0.00 0.00 53 1013.3
20260901010108 32 164 0.0 1.6 0.00 0.00 0.00 52 1012.9
20260901005602 32 163 0.0 1.6 0.00 0.00 0.00 51 1013.2
20260901004702 33 163 0.0 1.6 0.00 0.00 0.00 50 1013.2
20260901004504 33 164 0.0 0.0 0.00 0.00 0.00 50 1012.8
20260901003802 33 164 0.0 3.2 0.00 0.00 0.00 49 1013.1
20260901003106 33 164 0.0 3.2 0.00 0.00 0.00 47 1012.8
20260901002902 33 164 0.0 3.2 0.00 0.00 0.00 47 1013.0
20260901001604 33 164 0.0 4.8 0.00 0.00 0.00 46 1012.6
20260901001102 34 163 3.2 6.4 0.00 0.00 0.00 46 1012.9
20260901000203 34 157 3.2 8.0 0.00 0.00 0.00 45 1012.9
20260901000007 34 164 3.2 8.0 0.00 0.00 0.00 45 1012.6
20260831235306 35 152 4.8 8.0 0.00 0.00 0.00 44 1012.9
20260831234503 35 155 4.8 9.7 0.00 0.00 0.00 43 1012.6
20260831234402 35 158 6.4 9.7 0.00 0.00 0.00 43 1012.9
20260831233502 35 168 6.4 11.3 0.00 0.00 0.00 41 1013.0
20260831233107 35 132 6.4 11.3 0.00 0.00 0.00 41 1012.8
20260831232602 36 138 6.4 11.3 0.00 0.00 0.00 40 1012.9
20260831231702 36 154 4.8 9.7 0.00 0.00 0.00 39 1013.0
20260831231502 36 95 3.2 9.7 0.00 0.00 0.00 39 1012.6
20260831230802 36 149 6.4 14.5 0.00 0.00 0.00 37 1012.9
20260831230002 36 135 8.0 14.5 0.00 0.00 0.00 35 1012.6
20260831224603 37 158 8.0 12.9 0.00 0.00 0.00 34 1012.7
20260831223202 37 142 8.0 14.5 0.00 0.00 0.00 32 1013.2
20260831223004 37 150 8.0 16.1 0.00 0.00 0.00 30 1012.8
20260831222305 37 153 8.0 16.1 0.00 0.00 0.00 31 1013.2
20260831221504 37 178 6.4 12.9 0.00 0.00 0.00 32 1012.9
20260831221402 37 138 6.4 12.9 0.00 0.00 0.00 32 1013.2
20260831220502 37 156 8.0 17.7 0.00 0.00 0.00 33 1013.2
20260831220105 37 116 8.0 17.7 0.00 0.00 0.00 36 1012.8
20260831214702 38 170 6.4 12.9 0.00 0.00 0.00 36 1013.3
20260831214503 38 170 4.8 11.3 0.00 0.00 0.00 36 1013.0
20260831213802 38 175 4.8 8.0 0.00 0.00 0.00 37 1013.3
20260831213002 37 143 4.8 12.9 0.00 0.00 0.00 36 1013.1
20260831212902 37 146 4.8 12.9 0.00 0.00 0.00 37 1013.5
20260831212002 37 143 6.4 14.5 0.00 0.00 0.00 37 1013.5
20260831211603 37 77 4.8 17.7 0.00 0.00 0.00 37 1013.2
20260831211102 38 153 6.4 14.5 0.00 0.00 0.00 37 1013.7
20260831210202 38 158 9.7 16.1 0.00 0.00 0.00 39 1013.8
20260831210106 37 167 6.4 16.1 0.00 0.00 0.00 39 1013.4
20260831205305 38 166 6.4 16.1 0.00 0.00 0.00 38 1013.8
20260831204509 37 148 6.4 14.5 0.00 0.00 0.00 39 1013.7
20260831204402 38 159 8.0 14.5 0.00 0.00 0.00 39 1014.0
20260831203502 38 170 6.4 12.9 0.00 0.00 0.00 39 1014.0
20260831203016 37 168 4.8 16.1 0.00 0.00 0.00 39 1013.7
20260831202602 37 170 8.0 16.1 0.00 0.00 0.00 39 1014.2
20260831201702 37 157 8.0 20.9 0.00 0.00 0.00 40 1014.2
20260831201505 37 115 11.3 20.9 0.00 0.00 0.00 39 1013.9
20260831200802 37 177 6.4 14.5 0.00 0.00 0.00 40 1014.3
20260831200004 37 155 6.4 12.9 0.00 0.00 0.00 41 1014.0
20260831195902 37 134 8.0 14.5 0.00 0.00 0.00 40 1014.4
20260831195002 38 166 8.0 16.1 0.00 0.00 0.00 40 1014.5
20260831194511 38 160 8.0 16.1 0.00 0.00 0.00 40 1014.2
20260831194102 38 164 8.0 12.9 0.00 0.00 0.00 40 1014.6
20260831193202 37 172 8.0 19.3 0.00 0.00 0.00 42 1014.6
20260831193006 37 165 8.0 22.5 0.00 0.00 0.00 42 1014.3
20260831192305 37 149 6.4 22.5 0.00 0.00 0.00 41 1014.7
20260831191604 37 107 6.4 14.5 0.00 0.00 0.00 42 1014.4
20260831191402 37 196 4.8 11.3 0.00 0.00 0.00 43 1014.8
20260831190502 37 330 3.2 9.7 0.00 0.00 0.00 42 1014.9
20260831190006 37 313 3.2 8.0 0.00 0.00 0.00 42 1014.6
20260831185602 37 153 6.4 12.9 0.00 0.00 0.00 43 1015.1
20260831184702 37 146 6.4 14.5 0.00 0.00 0.00 43 1015.3
20260831184605 37 145 8.0 14.5 0.00 0.00 0.00 43 1014.9
20260831183103 36 162 3.2 11.3 0.00 0.00 0.00 45 1015.1
20260831182902 36 104 4.8 11.3 0.00 0.00 0.00 45 1015.4
20260831182002 37 141 6.4 11.3 0.00 0.00 0.00 43 1015.5
20260831181504 36 170 4.8 11.3 0.00 0.00 0.00 44 1015.2
20260831181102 37 185 6.4 11.3 0.00 0.00 0.00 44 1015.7
20260831180202 37 187 4.8 12.9 0.00 0.00 0.00 45 1015.8
20260831180005 36 253 4.8 12.9 0.00 0.00 0.00 46 1015.5
20260831174605 36 93 4.8 11.3 0.00 0.00 0.00 45 1015.7
20260831174402 37 173 8.0 11.3 0.00 0.00 0.00 45 1016.1
20260831173502 36 169 4.8 14.5 0.00 0.00 0.00 46 1016.3
20260831173106 36 151 1.6 14.5 0.00 0.00 0.00 48 1016.1
20260831172602 36 165 6.4 14.5 0.00 0.00 0.00 47 1016.5
20260831171702 36 152 4.8 11.3 0.00 0.00 0.00 49 1016.6
20260831171505 35 165 6.4 11.3 0.00 0.00 0.00 50 1016.3
20260831170107 35 167 8.0 12.9 0.00 0.00 0.00 50 1016.4
20260831165902 35 163 6.4 12.9 0.00 0.00 0.00 50 1016.8
20260831165002 35 165 6.4 16.1 0.00 0.00 0.00 52 1016.8
20260831164613 35 166 4.8 12.9 0.00 0.00 0.00 52 1016.5
20260831164101 35 135 6.4 14.5 0.00 0.00 0.00 54 1016.9
20260831163202 34 169 6.4 14.5 0.00 0.00 0.00 52 1017.0
20260831163106 34 157 3.2 14.5 0.00 0.00 0.00 54 1016.7
20260831162305 34 163 6.4 12.9 0.00 0.00 0.00 54 1017.0
20260831161508 33 288 6.4 17.7 0.00 0.00 0.00 56 1016.8
20260831161401 34 169 8.0 16.1 0.00 0.00 0.00 56 1017.0
20260831160505 34 165 8.0 14.5 0.00 0.00 0.00 55 1017.0
20260831160012 34 168 6.4 12.9 0.00 0.00 0.00 56 1016.7
20260831155603 34 174 4.8 12.9 0.00 0.00 0.00 55 1017.0
20260831154702 33 177 3.2 11.3 0.00 0.00 0.00 58 1017.1
20260831154510 33 188 4.8 11.3 0.00 0.00 0.00 58 1016.6
20260831153801 33 154 3.2 8.0 0.00 0.00 0.00 59 1017.0
20260831153003 32 115 1.6 12.9 0.00 0.00 0.00 60 1016.6
20260831152901 32 154 4.8 12.9 0.00 0.00 0.00 60 1017.0
20260831152002 32 154 3.2 11.3 0.00 0.00 0.00 61 1017.0
20260831151504 31 181 1.6 9.7 0.00 0.00 0.00 63 1016.7
20260831151102 31 187 4.8 9.7 0.00 0.00 0.00 63 1017.0
20260831150107 31 300 3.2 9.7 0.00 0.00 0.00 63 1016.7
20260831145306 31 146 4.8 11.3 0.00 0.00 0.00 64 1017.1
20260831144612 30 158 6.4 11.3 0.00 0.00 0.00 64 1016.7
20260831143501 30 166 4.8 8.0 0.00 0.00 0.00 66 1016.9
20260831143003 30 184 3.2 8.0 0.00 0.00 0.00 66 1016.5
20260831142601 30 157 3.2 9.7 0.00 0.00 0.00 67 1016.9
20260831141701 30 177 4.8 8.0 0.00 0.00 0.00 68 1016.8
20260831141505 29 158 3.2 8.0 0.00 0.00 0.00 68 1016.5
20260831140802 29 168 4.8 8.0 0.00 0.00 0.00 69 1016.7
20260831140110 28 172 3.2 9.7 0.00 0.00 0.00 70 1016.3
20260831135901 28 179 4.8 9.7 0.00 0.00 0.00 70 1016.6
20260831134605 28 172 3.2 8.0 0.00 0.00 0.00 72 1016.4
20260831133201 27 167 3.2 8.0 0.00 0.00 0.00 75 1016.6
20260831133103 27 152 3.2 8.0 0.00 0.00 0.00 75 1016.3
20260831131605 25 142 1.6 3.2 0.00 0.00 0.00 79 1016.1
20260831131401 26 159 0.0 1.6 0.00 0.00 0.00 79 1016.3
20260831130501 25 169 1.6 4.8 0.00 0.00 0.00 79 1016.1
20260831130005 25 151 0.0 3.2 0.00 0.00 0.00 79 1015.8
20260831124503 25 106 0.0 1.6 0.00 0.00 0.00 79 1015.6
20260831123801 25 130 1.6 4.8 0.00 0.00 0.00 80 1015.8
20260831123107 25 130 0.0 1.6 0.00 0.00 0.00 79 1015.4
20260831122901 25 129 0.0 1.6 0.00 0.00 0.00 79 1015.7
20260831122001 25 130 0.0 3.2 0.00 0.00 0.00 79 1015.5
20260831121504 25 130 0.0 1.6 0.00 0.00 0.00 79 1015.3
20260831121101 25 130 0.0 3.2 0.00 0.00 0.00 79 1015.5
20260831120202 25 132 0.0 3.2 0.00 0.00 0.00 79 1015.4
20260831120108 25 130 0.0 3.2 0.00 0.00 0.00 79 1015.1
20260831115301 25 118 0.0 3.2 0.00 0.00 0.00 78 1015.3
20260831114511 25 105 0.0 3.2 0.00 0.00 0.00 78 1014.9
20260831113501 25 93 1.6 4.8 0.00 0.00 0.00 78 1015.2
20260831113002 25 124 1.6 6.4 0.00 0.00 0.00 78 1014.8
20260831112601 25 70 0.0 4.8 0.00 0.00 0.00 78 1015.1
20260831111701 25 82 0.0 3.2 0.00 0.00 0.00 78 1015.0
20260831111604 25 45 0.0 3.2 0.00 0.00 0.00 78 1014.7
20260831110802 25 144 0.0 3.2 0.00 0.00 0.00 78 1015.0